CZ-5 R/B

Last updated on Wed May 08 2024 00:02:04 GMT+0000 (Coordinated Universal Time)

1 59628U 24083B 24124.60000000 .00000000 00000+0 00000+0 0 9994 2 59628 23.1500 348.9340 9764692 239.8920 3.9470 0.06022200 38

Satellite not in orbit